Regional Weather Roundup
Issued by NWS

Home | Current Version | Previous Version | Graphics & Text | Print | Product List | Glossary On
Versions: 1 2 3 4 5 6 7 8 9 10 11 12 13 14 15 16 17 18 19 20 21 22 23 24 25 26 27 28 29 30 31 32 33 34 35 36 37 38 39 40 41 42 43 44 45 46 47 48 49 50
248
ASUS43 KTOP 280859
RWRKS

WEATHER ROUNDUP FOR KANSAS
NATIONAL WEATHER SERVICE GOODLAND KS
300 AM CST TUE FEB 28 2017

NOTE:  "FAIR" INDICATES FEW OR NO CLOUDS BELOW 12,000 FEET WITH NO
SIGNIFICANT WEATHER AND/OR OBSTRUCTIONS TO VISIBILITY.

KSZ001>006-013>018-027>032-041>047-281000-
NORTHWEST KANSAS

CITY           SKY/WX    TMP DP  RH WIND       PRES   REMARKS
GOODLAND       CLOUDY    28  20  71 W14       29.70R WCI  17
HAYS             N/A     43  19  38 SW7       29.64S
HILL CITY      CLOUDY    44  23  43 W16G25    29.63R
RUSSELL        PTCLDY    42  21  43 SW8       29.61F
$$

KSZ061>065-074>080-084>089-281000-
SOUTHWEST KANSAS

CITY           SKY/WX    TMP DP  RH WIND       PRES   REMARKS
DODGE CITY     CLOUDY    44  15  31 SW8       29.68S
ELKHART          N/A     42  15  33 SW9         N/A
GARDEN CITY    PTCLDY    41  12  30 W3        29.67S
GREAT BEND     PTCLDY    43  24  47 SW12      29.66R
LIBERAL        MOCLDY    43  14  31 SW10      29.70S
$$

KSZ066>073-081>083-090>101-281000-
SOUTHEAST KANSAS

CITY           SKY/WX    TMP DP  RH WIND       PRES   REMARKS
CHANUTE        CLOUDY    63  58  83 S22G33    29.75F
COFFEYVILLE    CLOUDY    62  58  86 S21       29.78F
HUTCHINSON     PTCLDY    53  51  93 S14       29.68F
MEDICINE LODGE   N/A     49  41  74 SE6       29.69F
NEWTON         MOCLDY    57  55  93 S18G26    29.70F
PARSONS        CLOUDY    62  58  86 S15G25    29.78F
WICHITA INTL   CLOUDY    58  57  97 S17       29.71F FOG
WICHITA JABRA  CLOUDY    60  58  92 S21G29    29.70F
WINFIELD       CLOUDY    62  59  90 S15G25    29.72F
$$

KSZ007>012-019>026-033>040-048>060-102>105-281000-
NORTHEAST KANSAS

CITY           SKY/WX    TMP DP  RH WIND       PRES   REMARKS
CONCORDIA      CLEAR     48  39  71 S16       29.61R
EMPORIA        CLOUDY    62  58  86 S22G29    29.69F
LAWRENCE       MOCLDY    64  59  83 S22G30    29.67F
MANHATTAN      CLEAR     59  55  87 SW16G23   29.65S
OLATHE IND     CLOUDY    61  56  83 S14G26    29.71F
OLATHE EXE     CLOUDY    61  58  90 S18G26    29.70F
SALINA         PTCLDY    53  48  83 S12       29.65F
TOPEKA BILLARD CLOUDY    64  60  87 S15G28    29.66S
TOPEKA FORBES  MOCLDY    64  58  80 S18G30    29.67F
$$




USA.gov is the U.S. government's official web portal to all federal, state and local government web resources and services.